[TLELIST] Archives

 

[TLELIST] Current TLEs

April 7th 2023 PST

HST 1 20580U 90037B 23096.88691737 .00005330 00000-0 28684-3 0 9995 2 20580 28.4708 22.2155 0002618 331.2719 81.4274 15.12626003610656 ISS (ZARYA) 1 25544U 98067A 23097.32991898 .00020350 00000-0 36881-3 0 9999 2 25544 51.6397 319.6514 0006117 164.7289 175.2373 15.49582344390795 CXO 1 25867U 99040B 23096.56659145 .00001147 00000-0 00000+0 0 9993 2 25867 38.4002 205.8553 9033590 255.1087 0.2070 0.37818440 24068 ...Continue Reading

[TLELIST] Current TLEs

April 6th 2023 PST

HST 1 20580U 90037B 23096.24045413 .00005512 00000-0 29702-3 0 9993 2 20580 28.4707 26.5127 0002582 323.7444 161.6787 15.12618980610815 ISS (ZARYA) 1 25544U 98067A 23096.39622788 .00014820 00000-0 27133-3 0 9999 2 25544 51.6424 324.2730 0006588 158.8749 9.1209 15.49542628390654 CXO 1 25867U 99040B 23096.56659145 .00001147 00000-0 00000+0 0 9993 2 25867 38.4002 205.8553 9033590 255.1087 0.2070 0.37818440 24068 ...Continue Reading

[TLELIST] Current TLEs

April 5th 2023 PST

HST 1 20580U 90037B 23094.25958622 .00006216 00000-0 33650-3 0 9996 2 20580 28.4704 39.6800 0002479 300.3116 177.0720 15.12597832610255 ISS (ZARYA) 1 25544U 98067A 23095.39437500 .00019469 00000-0 35393-3 0 9995 2 25544 51.6430 329.2301 0006781 156.6544 179.0377 15.49522907390497 CXO 1 25867U 99040B 23096.56659145 .00001147 00000-0 00000+0 0 9993 2 25867 38.4002 205.8553 9033590 255.1087 0.2070 0.37818440 24068 ...Continue Reading

[TLELIST] Current TLEs

April 4th 2023 PST

HST 1 20580U 90037B 23094.25958622 .00006216 00000-0 33650-3 0 9996 2 20580 28.4704 39.6800 0002479 300.3116 177.0720 15.12597832610514 ISS (ZARYA) 1 25544U 98067A 23094.26313126 .00022095 00000-0 40092-3 0 9998 2 25544 51.6427 334.8287 0006969 152.2732 348.9727 15.49487983390329 CXO 1 25867U 99040B 23096.56659145 .00001147 00000-0 00000+0 0 9993 2 25867 38.4002 205.8553 9033590 255.1087 0.2070 0.37818440 24068 ...Continue Reading

[TLELIST] Current TLEs

April 4th 2023 PST

HST 1 20580U 90037B 23094.25958622 .00006216 00000-0 33650-3 0 9996 2 20580 28.4704 39.6800 0002479 300.3116 177.0720 15.12597832610514 ISS (ZARYA) 1 25544U 98067A 23094.26313126 .00022095 00000-0 40092-3 0 9998 2 25544 51.6427 334.8287 0006969 152.2732 348.9727 15.49487983390329 CXO 1 25867U 99040B 23096.56659145 .00001147 00000-0 00000+0 0 9993 2 25867 38.4002 205.8553 9033590 255.1087 0.2070 0.37818440 24068 ...Continue Reading

[TLELIST] Current TLEs

April 3rd 2023 PST

HST 1 20580U 90037B 23092.34889014 .00006634 00000-0 36004-3 0 9992 2 20580 28.4702 52.3797 0002490 279.0789 213.2901 15.12575827609961 ISS (ZARYA) 1 25544U 98067A 23093.16814089 .00023718 00000-0 43035-3 0 9993 2 25544 51.6437 340.2539 0006821 148.5611 0.7271 15.49443646390158 CXO 1 25867U 99040B 23093.92214460 .00001150 00000-0 00000-0 0 9992 2 25867 38.4450 206.2020 9035378 254.8397 0.1854 0.37814949 12904 ...Continue Reading

[TLELIST] Current TLEs

April 2nd 2023 PST

HST 1 20580U 90037B 23092.27903012 .00006611 00000-0 35874-3 0 9998 2 20580 28.4703 52.8441 0002491 278.3262 192.8800 15.12574872610211 ISS (ZARYA) 1 25544U 98067A 23092.46085029 .00023404 00000-0 42526-3 0 9995 2 25544 51.6427 343.7517 0007074 145.3107 16.1565 15.49410436390043 CXO 1 25867U 99040B 23093.92214460 .00001150 00000-0 00000-0 0 9992 2 25867 38.4450 206.2020 9035378 254.8397 0.1854 0.37814949 12904 ...Continue Reading

[TLELIST] Current TLEs

April 1st 2023 PST

HST 1 20580U 90037B 23090.36833889 .00007234 00000-0 39375-3 0 9992 2 20580 28.4703 65.5431 0002529 255.5597 230.8221 15.12551341609923 ISS (ZARYA) 1 25544U 98067A 23091.23198343 .00023540 00000-0 42854-3 0 9998 2 25544 51.6420 349.8358 0007165 140.8187 1.7826 15.49352136389854 CXO 1 25867U 99040B 23091.27701294 .00001094 00000-0 00000-0 0 9991 2 25867 38.4958 206.5694 9035758 254.5403 0.1143 0.37812581 12882 ...Continue Reading

[TLELIST] Current TLEs

March 31st 2023 PST

HST 1 20580U 90037B 23089.38356977 .00007014 00000-0 38162-3 0 9999 2 20580 28.4702 72.0882 0002549 244.0947 269.4060 15.12538777609511 ISS (ZARYA) 1 25544U 98067A 23090.26496853 -.00121133 00000-0 -22031-2 0 9990 2 25544 51.6415 354.6230 0007256 134.2299 11.1855 15.49243653389707 CXO 1 25867U 99040B 23091.27701294 .00001094 00000-0 00000-0 0 9991 2 25867 38.4958 206.5694 9035758 254.5403 0.1143 0.37812581 12882 ...Continue Reading

[TLELIST] Current TLEs

March 30th 2023 PST

HST 1 20580U 90037B 23089.29486789 .00006769 00000-0 36797-3 0 9992 2 20580 28.4702 72.6777 0002547 243.0386 146.5087 15.12537277609769 ISS (ZARYA) 1 25544U 98067A 23089.35406344 .00030332 00000-0 54083-3 0 9995 2 25544 51.6427 359.1282 0006014 149.8412 311.0895 15.49805318389569 CXO 1 25867U 99040B 23091.27701294 .00001094 00000-0 00000-0 0 9991 2 25867 38.4958 206.5694 9035758 254.5403 0.1143 0.37812581 12882 ...Continue Reading
  • This mailing list is a public mailing list - anyone may join or leave, at any time.
  • This mailing list is announce-only.

International Space Station (ISS) / Hubble Space Telescope (HST) / Chandra X-Ray Observatory Orbital Data via EMAIL

Privacy Policy:

Private list